Simultaneous Nadir Overpasses (SNOs) Predictions

Prediction of SNOs between GOES-15 and FY3D Satellite Orbit:

Table of predicted SNOs for the next 14.0 days since TLE Epoch: 5/16/2020
Index Date Time (GOES-15) GOES-15 Lat,Lon FY3D Lat,Lon Distance(km) Time Diff (sec)
1 05/16/2020 09:45:29 -0.08,-128.30 -0.98,-124.32 453.57 80
2 05/17/2020 22:09:47 0.05,-128.29 -0.23,-129.54 142.90 80
3 05/18/2020 21:48:12 0.07,-128.29 0.83,-124.97 378.38 80
4 05/20/2020 10:12:21 -0.04,-128.29 0.37,-130.15 212.99 80
5 05/21/2020 09:50:46 -0.06,-128.28 -0.68,-125.58 307.45 80
6 05/22/2020 22:15:04 0.04,-128.25 -0.52,-130.80 290.89 80
7 05/23/2020 21:53:27 0.05,-128.24 0.48,-126.22 229.58 80
8 05/25/2020 10:17:38 -0.03,-128.23 0.66,-131.42 362.55 80
9 05/26/2020 09:56:01 -0.04,-128.21 -0.34,-126.83 157.00 80
10 05/27/2020 22:20:20 0.02,-128.17 -0.87,-132.05 443.38 80
11 05/28/2020 21:58:44 0.03,-128.15 0.19,-127.48 76.37 80




NCC Satellite Simultaneous Nadir Overpasses (SNOs) Prediction Service
